{"data":{"norad_id":66485,"intl_designator":"2025-263A","name":"STARLINK-34774","alt_names":[],"object_type":"PAYLOAD","status":"ACTIVE","operator":null,"country":"US","launch_date":"2025-11-15","launch_site_code":"AFETR","launch_vehicle":null,"mission":null,"orbit_class":"UNKNOWN","rcs_meters":null,"size_class":null,"mass_kg":null,"dimensions":null,"purposes":["comms"],"wikipedia_slug":null,"has_3d_model":false,"image_url":null,"decayed_at":null,"tle_current":{"epoch":"2026-05-24T16:16:38.162208Z","epoch_age_seconds":99009,"freshness":"FRESH","line1":"1 66485U 25263A   26144.67821947  .00013953  00000+0  51553-3 0  9990","line2":"2 66485  43.0007 281.2771 0003036  70.3333 289.7846 15.27583963 30527","mean_motion":15.27583963,"eccentricity":0.0003036,"inclination_deg":43.0007,"raan_deg":281.2771,"arg_perigee_deg":70.3333,"mean_anomaly_deg":289.7846,"bstar":0.00051553,"rev_number":3052,"period_min":94.266504158109,"perigee_km":480.95417692157,"apogee_km":485.12028191368,"semimajor_km":6861.1742294176,"source":"CELESTRAK","updated_at":"2026-05-25T13:38:21.241391Z"}}}